EW5898 Weather Reports


time (UTC)temp
F
wind
direction
speed
knots
gust
knots
rain 1hr
in
rain 24hr
in
rain mn
in
humidity
%
barometer
mb
20260504213919 76 296 3.5 5.2 0.00 0.00 0.00 53 1008.9
20260504213027 75 257 0.9 6.1 0.00 0.00 0.00 57 1009.3
20260504212926 76 279 3.5 6.1 0.00 0.00 0.00 54 1009.1
20260504212922 76 281 2.6 5.2 0.00 0.00 0.00 54 1009.1
20260504205919 74 254 2.6 6.1 0.00 0.00 0.00 61 1009.2
20260504204923 74 276 4.3 8.7 0.00 0.00 0.00 59 1009.4
20260504204919 74 282 3.5 6.1 0.00 0.00 0.00 57 1009.4
20260504202917 74 269 3.5 5.2 0.00 0.00 0.00 59 1009.5
20260504201917 73 257 4.3 6.1 0.00 0.00 0.00 59 1009.4
20260504200917 73 282 3.5 7.8 0.00 0.00 0.00 64 1009.5
20260504195916 73 302 4.3 6.1 0.00 0.00 0.00 60 1009.5
20260504194916 73 244 1.7 5.2 0.00 0.00 0.00 60 1009.6
20260504193916 72 251 3.5 6.1 0.00 0.00 0.00 58 1009.5
20260504192917 71 278 2.6 4.3 0.00 0.00 0.00 60 1009.6
20260504191915 70 269 2.6 5.2 0.00 0.00 0.00 61 1009.5
20260504190916 71 285 0.9 4.3 0.00 0.00 0.00 65 1009.6
20260504185915 71 286 1.7 6.1 0.00 0.00 0.00 68 1009.6
20260504184916 71 175 0.9 4.3 0.00 0.00 0.00 68 1009.6
20260504183914 70 290 2.6 5.2 0.00 0.00 0.00 65 1009.6
20260504182918 70 238 0.9 2.6 0.00 0.00 0.00 67 1009.7
20260504182914 70 257 1.7 3.5 0.00 0.00 0.00 64 1009.6
20260504180913 69 265 2.6 5.2 0.00 0.00 0.00 66 1009.7
20260504175913 69 235 0.9 3.5 0.00 0.00 0.00 69 1009.8
20260504174913 68 272 0.0 4.3 0.00 0.00 0.00 71 1009.8
20260504173910 68 285 1.7 5.2 0.00 0.00 0.00 71 1009.7
20260504172911 68 288 2.6 4.3 0.00 0.00 0.00 68 1009.7
20260504171915 67 269 0.0 2.6 0.00 0.00 0.00 68 1009.7
20260504171911 68 302 1.7 3.5 0.00 0.00 0.00 68 1009.7
20260504171021 66 252 0.9 3.5 0.00 0.00 0.00 73 1009.5
20260504171017 67 275 0.0 3.5 0.00 0.00 0.00 71 1009.7
20260504150907 61 340 0.0 0.9 0.00 0.00 0.00 77 1009.7
20260504140906 52 79 0.0 0.9 0.00 0.00 0.00 90 1009.0
20260504081858 52 79 0.0 1.7 0.00 0.00 0.00 91 1008.7
20260504081853 52 75 0.9 1.7 0.00 0.00 0.00 91 1008.7
20260504045851 58 76 0.0 0.9 0.00 0.00 0.00 80 1008.7
20260504045847 57 76 0.0 0.0 0.00 0.00 0.00 83 1008.8
20260504043848 59 326 0.0 0.0 0.00 0.00 0.00 77 1008.7
20260504042846 60 289 0.0 0.0 0.00 0.00 0.00 74 1008.6
20260504041846 60 275 0.0 2.6 0.00 0.00 0.00 74 1008.6
20260504040845 61 282 0.0 0.9 0.00 0.00 0.00 73 1008.7
20260504035846 62 275 0.0 1.7 0.00 0.00 0.00 70 1008.6
20260504034845 62 266 0.0 0.9 0.00 0.00 0.00 69 1008.5
20260504033849 64 278 0.0 0.9 0.00 0.00 0.00 65 1008.5
20260504033845 63 262 0.0 0.9 0.00 0.00 0.00 67 1008.5
20260504032950 65 259 0.0 1.7 0.00 0.00 0.00 64 1008.4
20260504030843 67 303 0.0 1.7 0.00 0.00 0.00 61 1008.4
20260504025842 67 279 0.0 2.6 0.00 0.00 0.00 60 1008.4
20260504024842 68 283 0.9 3.5 0.00 0.00 0.00 59 1008.5
20260504023847 68 261 3.5 6.1 0.00 0.00 0.00 57 1008.5
20260504023843 68 271 0.9 4.3 0.00 0.00 0.00 59 1008.5
20260504021841 69 296 3.5 6.1 0.00 0.00 0.00 55 1008.5
20260504020841 70 292 3.5 6.1 0.00 0.00 0.00 53 1008.6
20260504015841 70 261 2.6 4.3 0.00 0.00 0.00 56 1008.7
20260504014841 70 237 3.5 6.1 0.00 0.00 0.00 54 1008.7
20260504013840 69 254 3.5 7.8 0.00 0.00 0.00 57 1008.9
20260504012840 69 302 3.5 7.8 0.00 0.00 0.00 58 1008.9
20260504011947 72 271 0.9 6.1 0.00 0.00 0.00 59 1009.0
20260504011844 71 303 4.3 6.1 0.00 0.00 0.00 58 1009.1
20260504011840 70 306 4.3 7.8 0.00 0.00 0.00 61 1009.0
20260504004839 72 296 2.6 7.8 0.00 0.00 0.00 60 1009.2
20260504003844 71 279 3.5 7.8 0.00 0.00 0.00 60 1009.3
20260504003839 71 269 3.5 6.1 0.00 0.00 0.00 59 1009.2
20260504002943 72 281 3.5 7.8 0.00 0.00 0.00 59 1009.5
20260504000838 72 235 3.5 7.8 0.00 0.00 0.00 59 1009.6
20260503235838 71 244 4.3 7.8 0.00 0.00 0.00 59 1009.6
20260503234837 71 275 4.3 8.7 0.00 0.00 0.00 59 1009.8
20260503233837 70 274 4.3 9.6 0.00 0.00 0.00 60 1009.9
20260503232836 70 247 4.3 13.9 0.00 0.00 0.00 60 1010.0
20260503231836 71 265 4.3 9.6 0.00 0.00 0.00 63 1010.1
20260503230835 70 262 5.2 9.6 0.00 0.00 0.00 60 1010.3
20260503225835 70 231 5.2 13.0 0.00 0.00 0.00 59 1010.4
20260503224835 70 251 4.3 9.6 0.00 0.00 0.00 61 1010.5
20260503223834 70 313 5.2 12.2 0.00 0.00 0.00 63 1010.7
20260503222839 69 283 5.2 12.2 0.00 0.00 0.00 60 1011.1
20260503222834 69 313 6.1 13.0 0.00 0.00 0.00 62 1011.0
20260503221834 69 248 7.0 11.3 0.00 0.00 0.00 60 1011.1
20260503215833 70 262 5.2 11.3 0.00 0.00 0.00 58 1011.3